RH
21 17 15 13 12 12 11 11 11 10 10 10 10 9 9 9 9 8 9 8 8 8 8 8 8 8 8 8 8 7 7 7 7 7 7 7 7 7 7 7 6 6 6 6 6 6 5 4 4 4 4 4 4 3 3 3 3 3 3 3 3 4 3 4 4 4 4 4 4 4 4 4 5 4 4 4 4 5 5 6 7 7 8 9 9
15 14 13 12 12 11 11 11 10 10 10 9 9 8 8 8 8 8 7 7 7 7 7 7 7 7 7 7 7 7 7 7 6 6 6 6 6 6 6 6 6 5 5 5 5 5 4 4 4 4 3 3 3 3 3 3 3 3 3 3 3 3 3 3 4 4 3 3 3 4 4 4 4 4 4 4 4 5 5 5 6 7 7 8 9
13 12 12 11 10 10 10 9 9 9 9 9 8 8 8 7 7 7 7 7 7 7 7 7 6 6 6 6 6 6 6 6 5 5 5 5 5 5 5 5 5 5 5 5 5 4 4 4 4 3 3 3 3 3 3 3 3 3 3 3 3 3 3 3 3 3 3 3 3 3 4 4 4 4 4 4 4 4 5 5 6 6 7 8 8
12 12 11 10 9 9 9 8 8 8 8 8 8 7 7 7 7 6 6 6 6 6 6 6 6 6 6 6 5 5 5 5 5 5 4 5 5 4 5 5 5 5 4 4 4 4 3 3 3 3 3 3 3 3 3 3 3 3 3 3 3 3 3 3 3 3 3 3 3 3 3 3 4 4 4 4 5 4 5 5 5 6 6 7 8
12 11 10 9 9 8 8 8 7 7 7 7 7 6 6 6 6 6 6 6 5 5 5 5 5 5 5 5 5 5 5 5 4 5 4 4 4 4 4 4 4 4 4 4 4 3 3 3 3 3 3 3 3 3 3 3 3 3 3 3 3 3 3 3 3 3 3 3 3 3 3 3 4 4 4 4 4 4 4 4 5 5 6 7 8
11 10 9 8 8 7 7 7 7 7 6 6 6 6 6 5 5 5 5 5 5 5 5 5 5 5 4 5 4 4 5 4 4 4 4 4 4 4 4 4 4 4 4 4 3 3 3 3 3 3 3 3 3 3 3 3 3 3 3 3 3 2 2 2 3 3 3 3 3 3 3 3 4 4 4 4 4 5 4 4 4 5 6 6 7
10 9 8 7 7 7 7 7 7 6 6 6 6 6 6 5 5 5 5 5 5 4 4 4 4 4 4 4 4 4 4 4 4 4 4 4 4 4 4 4 4 4 3 3 3 3 3 3 3 3 3 3 3 3 3 3 3 3 3 2 2 2 2 2 2 2 3 3 3 3 3 3 3 4 4 4 4 5 4 5 5 4 5 6 6
9 8 7 7 7 7 7 7 6 6 6 6 5 5 5 5 5 5 5 5 5 4 4 4 4 4 4 4 4 4 4 4 3 3 3 3 3 3 3 3 3 3 3 3 3 3 3 3 3 3 3 3 3 3 3 3 3 3 2 2 2 2 2 2 2 2 2 3 3 3 3 3 3 4 4 4 4 4 4 4 5 4 5 5 6
9 8 7 7 7 7 7 7 6 6 6 5 5 5 5 5 5 5 5 4 4 4 4 4 4 4 3 3 3 3 3 3 3 3 3 2 3 3 3 3 3 3 3 3 3 3 3 3 3 3 3 3 3 3 3 3 3 2 2 2 2 2 2 2 2 2 2 2 3 3 3 3 3 3 4 4 4 4 4 5 5 4 5 5 5
9 8 8 7 7 7 7 7 6 6 5 5 5 5 5 5 4 4 4 4 3 3 3 3 3 3 3 3 3 3 2 3 2 2 2 2 2 2 2 2 3 2 3 3 3 3 3 3 3 3 3 3 3 3 3 3 2 2 2 2 2 2 2 2 2 2 2 2 3 3 3 3 3 3 3 4 4 4 4 5 5 4 4 5 5
8 8 8 7 7 7 6 6 6 5 6 5 5 5 4 4 4 3 3 3 3 3 3 3 3 3 3 3 3 3 2 3 3 2 2 2 2 2 2 2 2 2 2 2 2 2 2 3 3 3 3 3 3 3 3 3 2 2 2 2 2 2 2 2 2 2 2 2 2 3 3 3 3 3 4 4 4 4 4 4 5 5 4 5 4
8 8 8 7 6 6 6 6 6 5 5 5 4 4 3 3 3 3 3 3 3 3 3 3 3 3 3 3 3 3 3 3 3 2 2 2 2 2 2 2 2 2 2 2 2 2 2 2 2 3 3 3 3 3 2 2 2 2 2 2 2 2 2 2 2 2 2 2 3 3 3 3 3 3 4 4 4 4 4 4 5 5 4 4 4
8 7 6 6 6 6 6 6 5 5 4 4 3 3 3 3 3 3 3 3 3 3 3 3 3 3 3 3 3 3 3 3 3 3 3 2 2 2 2 3 2 2 2 2 2 2 2 2 2 3 3 3 3 3 2 2 2 2 3 3 2 2 2 2 2 2 2 2 3 3 3 3 4 4 4 4 4 4 4 4 4 5 4 4 4
7 6 6 6 6 6 6 5 4 4 3 3 3 3 3 3 3 3 3 3 3 3 3 3 3 3 3 3 4 4 3 3 3 3 3 2 2 3 3 3 2 2 2 2 2 2 2 2 2 2 2 3 3 2 2 2 3 3 3 3 3 2 2 2 2 2 2 3 3 3 3 3 4 4 4 4 4 4 4 5 4 5 5 4 4
6 6 6 6 6 5 5 4 3 3 3 3 3 3 3 3 3 3 3 3 4 4 4 4 4 4 4 4 4 4 4 4 3 3 3 3 2 3 3 3 3 2 2 2 2 2 2 2 2 2 3 3 2 2 2 2 3 3 3 3 3 3 3 2 3 3 2 3 3 3 4 4 4 4 4 4 4 5 5 5 5 5 5 5 4
6 6 6 6 5 4 4 3 3 3 3 3 3 3 3 3 3 3 3 4 4 4 4 4 4 4 4 4 4 4 4 4 3 3 3 3 3 3 3 3 3 2 2 2 2 2 2 2 2 2 3 3 2 2 3 3 3 3 3 3 3 3 3 2 2 3 3 3 3 3 4 4 4 4 4 4 5 5 5 5 5 5 5 5 4
6 6 6 5 4 3 3 3 3 3 3 3 3 3 3 3 3 3 4 3 4 4 3 4 3 3 4 4 4 4 4 4 4 3 3 3 3 3 3 3 3 2 2 2 3 3 2 2 3 3 3 3 3 3 3 3 3 3 3 3 3 3 3 3 2 3 3 3 3 4 4 4 4 4 4 5 5 5 5 5 5 5 5 5 5
6 5 4 4 3 3 4 4 4 4 4 3 4 3 3 4 3 3 4 3 3 4 3 3 3 3 3 4 4 4 4 4 3 3 3 3 3 3 3 3 3 2 2 2 3 3 3 2 3 3 3 3 3 3 3 3 3 3 3 3 3 3 3 3 3 3 3 3 3 4 4 4 4 5 5 5 5 5 5 5 5 5 5 5 5
5 4 4 4 4 4 4 4 4 4 4 4 4 4 4 4 4 4 4 3 3 3 3 3 3 3 3 3 4 4 4 4 3 3 3 3 3 3 3 3 3 2 2 3 3 3 3 3 3 3 3 3 3 3 3 3 3 3 3 3 3 3 3 3 3 3 3 3 4 4 5 5 5 5 5 5 5 5 5 6 6 6 5 5 6
4 4 4 4 4 4 4 4 4 4 4 4 4 4 4 4 4 4 3 4 4 3 3 3 3 3 3 3 3 4 4 4 4 3 3 3 3 3 3 3 3 3 3 3 3 3 3 3 3 3 3 3 3 3 3 3 3 3 3 3 3 3 3 3 3 3 3 4 4 5 5 5 5 5 5 5 5 5 6 6 6 6 6 6 6
5 5 4 4 4 4 4 4 4 4 4 4 4 4 4 3 3 4 3 3 3 3 3 4 4 4 3 3 4 4 4 4 4 3 3 3 3 3 3 3 3 3 3 3 3 3 3 3 3 3 3 3 4 4 3 3 3 3 3 3 3 3 3 3 3 3 4 4 5 5 5 5 5 5 5 5 6 6 6 7 7 7 7 6 6
5 4 4 4 4 4 4 4 4 4 4 4 4 4 3 3 3 3 3 3 3 3 3 3 4 4 4 4 4 4 4 4 4 4 4 3 3 3 3 3 3 3 3 3 3 3 3 3 3 3 3 4 4 4 4 3 3 3 3 3 3 3 4 3 3 4 4 5 5 6 6 6 6 6 6 6 6 6 7 7 7 7 7 7 7
5 4 4 4 4 4 4 4 3 3 3 3 3 3 3 3 3 3 3 3 3 3 3 3 4 4 4 4 4 4 4 4 4 4 4 3 3 3 3 3 3 3 3 3 3 3 3 3 4 3 4 4 4 4 4 3 3 4 3 3 4 4 4 4 4 4 4 5 5 6 6 6 6 6 6 6 6 7 7 8 8 8 7 7 7
5 5 4 4 4 4 4 3 3 3 3 3 3 3 3 3 3 3 3 3 3 3 3 3 4 4 4 4 4 4 4 4 4 4 4 4 3 3 3 3 3 3 3 3 3 3 3 3 4 4 4 4 4 4 4 4 4 4 4 4 4 4 4 4 4 5 5 5 6 6 6 6 6 6 6 7 7 8 8 8 8 8 8 7 7
5 5 4 4 4 4 3 3 3 3 3 3 3 3 3 3 3 3 3 3 3 3 3 3 3 4 4 4 4 4 4 4 4 4 4 4 4 3 3 4 3 3 3 3 3 3 3 4 4 4 4 4 4 4 4 4 4 4 4 4 4 5 5 5 4 5 5 5 6 6 6 7 7 7 7 8 9 9 8 9 8 8 8 7 6
5 5 4 4 4 4 3 3 3 3 3 3 3 3 3 3 3 3 3 3 3 3 3 3 3 4 4 4 4 4 4 4 4 5 4 4 4 4 4 3 3 3 3 4 4 4 4 4 4 4 4 5 5 5 4 4 4 4 4 5 5 5 5 5 5 5 5 6 6 7 7 7 7 8 8 9 9 9 9 9 8 8 7 7 7
5 5 4 4 4 4 3 3 3 3 3 3 3 3 3 3 3 3 3 3 3 3 3 3 3 3 4 4 4 4 4 4 4 5 5 5 4 4 4 4 3 3 3 4 4 4 4 4 5 5 5 5 5 5 5 4 4 4 5 5 5 5 5 5 5 5 5 6 7 7 7 8 8 9 9 10 10 9 9 8 8 8 7 7 7
5 5 4 4 4 4 3 3 3 3 3 3 2 3 3 3 3 3 3 3 3 3 3 3 3 3 4 4 4 4 4 4 4 5 5 5 5 4 4 4 4 3 4 4 4 4 4 5 5 5 5 5 5 5 5 5 5 5 5 5 5 5 5 4 4 5 6 6 7 8 8 8 9 9 10 10 10 9 9 8 8 8 8 8 8
5 4 4 4 4 4 3 3 3 3 3 3 2 2 3 3 3 3 3 3 3 3 3 3 3 3 3 4 4 5 4 4 4 5 5 5 5 4 4 4 4 4 4 4 4 4 5 5 5 5 5 6 5 5 5 5 5 5 5 5 5 5 5 5 5 6 7 8 8 9 9 9 10 10 10 10 10 9 9 8 9 9 9 9 9
5 4 4 4 4 4 4 3 3 3 3 3 3 2 2 3 4 3 3 2 3 3 3 3 3 3 4 4 4 4 5 4 4 4 5 5 5 5 4 4 4 4 4 5 5 5 5 5 5 5 6 6 6 5 5 5 5 5 5 5 5 5 5 6 6 7 8 8 9 9 10 10 10 10 10 10 10 9 9 9 10 11 11 10 9
5 5 4 4 4 4 4 4 3 3 3 3 3 3 2 3 4 4 3 2 3 3 3 3 3 3 3 4 4 4 5 5 4 4 5 5 5 5 4 4 4 4 4 5 5 5 5 5 6 6 6 6 6 6 6 6 5 5 5 5 6 6 6 7 7 8 9 9 9 10 10 10 11 11 10 10 10 10 10 11 11 12 11 10 10
4 4 4 4 4 4 4 4 4 4 3 3 3 3 3 2 3 4 4 3 3 3 3 3 3 3 3 3 4 4 4 5 5 5 5 5 5 5 5 4 4 4 4 5 5 5 5 5 6 6 7 7 7 6 6 6 6 6 6 6 6 7 7 8 9 9 10 10 10 11 11 11 11 11 11 11 11 11 12 12 12 12 11 11 10
4 5 4 4 4 4 4 4 4 4 4 3 3 3 3 3 3 3 4 4 3 3 3 3 3 3 3 3 4 4 4 5 5 5 5 5 5 5 5 5 4 4 4 5 5 5 6 6 6 7 7 8 8 7 7 7 7 7 7 7 7 8 8 8 9 10 10 10 11 11 12 12 11 11 11 11 12 12 13 13 13 13 12 11 11
4 4 4 4 5 4 4 4 4 4 4 3 3 3 3 3 3 3 3 4 4 3 3 3 3 3 3 4 4 4 4 5 5 5 5 5 5 6 6 5 5 5 5 5 6 6 6 6 7 7 8 8 8 8 8 8 8 8 8 8 8 8 9 9 10 10 11 11 11 12 12 12 12 12 12 12 13 14 15 15 14 13 12 12 11
5 4 4 4 4 4 4 4 4 4 4 3 3 3 3 3 3 3 3 3 4 4 4 3 3 3 3 3 4 4 4 5 5 5 5 5 5 6 6 6 5 5 5 6 6 6 7 7 7 7 8 8 9 9 9 9 9 9 9 9 9 9 10 11 11 11 11 12 12 12 12 12 12 13 13 13 15 16 16 15 14 13 13 12 12
5 5 4 4 4 4 4 4 4 4 4 3 3 3 3 3 3 3 3 3 3 3 4 3 3 4 3 3 4 4 4 5 5 5 6 6 5 6 6 6 6 5 5 5 6 7 7 7 7 7 8 9 9 10 10 10 10 9 9 9 9 10 11 13 13 13 13 13 12 12 12 13 13 14 15 15 16 16 16 15 14 13 13 13 13
5 5 5 4 4 4 4 4 4 3 3 3 3 3 3 3 3 3 3 3 3 3 4 4 4 4 3 3 4 4 4 5 5 6 6 6 6 6 6 6 6 6 5 5 6 7 7 8 8 8 8 9 10 10 10 11 11 10 10 10 10 11 13 15 15 14 13 13 12 12 13 14 15 16 16 16 16 16 16 15 14 13 13 13 13
4 4 4 4 4 4 4 4 4 3 3 3 3 3 3 3 3 3 3 3 3 3 3 4 4 4 4 4 4 4 4 4 5 6 6 6 6 6 6 6 6 6 6 6 6 7 8 8 8 8 9 10 10 11 11 11 11 11 11 11 12 13 14 15 15 15 14 13 13 13 14 15 17 17 17 17 16 16 16 16 15 14 14 14 14
4 4 4 4 4 4 4 4 3 3 4 3 3 4 4 3 3 4 3 3 3 3 3 4 3 3 4 4 4 4 4 4 5 6 6 6 6 6 6 6 6 6 6 6 6 7 7 8 9 9 9 10 11 11 12 12 12 12 12 12 13 14 15 15 16 15 14 14 14 14 15 17 18 18 18 17 17 17 17 17 16 15 14 14 15
4 4 4 4 4 4 4 4 4 3 4 4 3 3 4 4 4 4 4 4 4 3 3 3 3 4 4 4 4 4 4 4 5 5 6 6 7 6 6 6 7 7 7 6 6 7 8 8 9 9 9 10 11 12 13 13 14 13 13 14 14 15 16 17 16 16 16 16 15 15 16 18 19 19 18 17 17 18 17 17 17 16 15 15 16
4 4 4 4 4 4 4 4 4 4 4 4 4 3 3 4 4 4 4 4 4 4 4 3 4 4 4 4 4 4 4 5 5 5 6 6 6 6 6 6 7 7 7 7 7 7 8 8 9 9 9 9 10 12 13 14 15 15 15 15 15 16 17 17 17 17 17 17 17 17 18 19 20 20 19 18 18 18 19 19 18 18 17 16 16
4 4 4 4 4 4 4 4 4 4 4 4 4 4 4 4 4 4 4 4 4 4 4 4 4 4 4 4 4 4 4 5 5 5 5 6 7 7 7 7 7 7 7 7 7 8 8 8 9 9 9 9 10 12 13 14 15 16 16 16 16 16 17 17 17 17 18 19 19 19 20 21 21 21 20 19 19 19 19 20 20 20 18 17 17
4 4 4 4 4 4 4 4 4 4 4 4 4 4 4 4 4 4 4 4 4 4 4 4 4 4 4 4 4 4 4 5 5 5 5 6 7 7 7 7 7 7 7 7 8 8 8 8 9 9 9 9 10 11 12 14 15 16 17 17 17 17 17 17 18 18 19 19 20 21 21 22 22 22 21 20 20 19 20 21 21 21 20 19 18
4 4 4 4 4 4 4 4 4 4 4 4 4 4 4 4 4 4 4 4 4 4 4 4 4 4 4 4 4 4 5 5 5 5 5 5 6 7 7 7 7 7 7 7 8 8 8 9 9 9 9 9 10 10 11 13 15 16 17 17 18 18 18 18 18 19 20 21 21 22 23 23 23 23 23 22 21 21 20 21 21 21 21 21 20
4 4 4 4 4 4 4 4 4 4 4 4 4 4 4 4 4 4 4 4 4 4 4 4 4 4 4 4 4 4 5 5 5 5 5 5 6 7 7 8 8 7 7 7 7 8 9 9 9 9 9 9 10 10 11 12 14 16 17 18 18 18 19 19 19 20 21 22 23 23 24 24 24 24 24 23 23 22 22 22 22 22 22 21 21
4 4 4 4 4 4 4 4 4 4 4 4 4 4 4 4 4 4 4 4 4 4 4 4 4 4 4 4 4 4 5 5 5 5 5 5 6 6 7 8 8 8 8 8 7 8 8 9 9 9 10 10 10 10 11 12 14 15 17 18 19 19 20 20 20 21 22 23 25 25 25 25 25 25 25 25 24 24 23 23 24 24 23 23 23
4 4 4 4 5 4 4 4 4 4 4 4 4 4 4 4 4 4 4 4 4 4 4 4 4 4 4 4 4 4 5 5 5 5 5 5 6 6 7 7 8 8 8 8 8 8 8 8 9 10 10 10 10 11 11 12 13 14 16 18 19 20 21 21 21 23 23 24 26 27 27 27 27 26 26 27 26 25 25 25 25 25 25 25 24
5 5 5 5 5 5 5 5 5 5 5 5 5 5 5 4 4 4 4 4 4 4 4 4 4 4 4 4 4 5 5 5 5 5 5 6 6 6 6 7 8 8 8 8 8 8 8 8 9 9 10 10 11 11 12 12 13 14 15 17 19 20 21 22 22 23 24 25 27 28 28 28 28 28 28 28 28 27 27 26 26 27 27 26 26
4 5 4 5 5 5 5 5 5 5 5 5 5 5 5 5 5 4 4 4 4 4 4 4 4 4 4 4 4 5 5 4 5 5 5 6 6 6 6 6 7 8 8 8 8 8 8 8 8 9 9 10 11 12 12 13 14 14 15 16 18 20 21 22 22 23 24 25 27 28 29 29 29 29 29 29 29 29 29 28 28 29 29 28 28
4 4 4 4 4 4 4 4 4 5 5 5 5 5 5 5 5 5 5 4 4 4 4 4 4 4 4 4 4 5 5 5 5 5 5 6 6 6 6 6 7 7 8 8 8 8 9 8 8 9 9 9 10 11 12 14 15 15 16 16 17 19 20 22 22 23 24 25 27 28 29 30 30 30 30 30 29 30 30 30 30 30 30 30 30
4 4 4 4 4 4 4 4 4 4 4 4 5 5 5 5 5 5 5 5 5 4 4 4 4 4 5 4 4 4 5 5 5 5 5 5 6 6 6 6 6 7 7 8 8 9 9 8 8 9 9 9 10 10 12 13 15 16 17 18 18 19 20 21 22 23 23 25 26 27 28 29 30 30 30 30 30 31 31 31 31 31 32 33 33
Wind_Speed
121 120 118 116 115 113 111 110 109 108 108 107 107 106 106 105 105 105 104 104 105 105 105 105 106 106 106 106 107 106 106 105 104 103 103 103 103 103 103 103 103 103 102 102 102 103 102 100 96 93 90 86 84 82 80 78 78 78 80 81 82 83 85 87 90 94 95 93 92 92 92 95 98 100 102 102 103 104 106 108 110 111 113 115 116
120 118 117 115 113 111 109 107 106 105 104 104 103 103 102 102 101 101 100 101 101 101 101 101 102 102 102 102 103 103 102 102 101 100 99 99 100 100 100 100 100 100 99 99 100 101 100 96 93 90 87 84 82 80 78 77 76 77 78 79 80 82 84 86 88 92 94 93 91 91 91 93 96 98 100 102 103 104 105 107 108 109 111 113 115
117 115 113 111 109 106 105 104 103 102 102 102 102 101 101 100 100 100 99 99 99 99 99 99 99 100 100 100 100 101 100 100 99 97 96 96 97 97 97 97 97 97 97 97 99 99 96 94 91 87 84 82 80 78 77 76 75 76 77 77 79 81 83 85 87 90 93 92 90 89 90 92 94 96 98 100 102 103 104 106 106 107 109 111 113
115 113 110 108 106 104 102 102 101 101 101 101 101 101 100 100 99 99 98 97 97 98 98 98 98 98 98 98 98 99 98 98 97 95 93 94 94 94 93 93 93 93 94 95 96 95 93 90 87 84 82 80 77 76 75 75 74 74 75 76 77 80 82 83 85 88 91 91 89 88 89 90 92 95 96 98 101 102 103 104 105 106 108 110 112
113 112 110 107 105 104 102 102 101 100 100 99 99 98 98 97 97 96 95 95 95 95 95 96 96 95 95 95 96 96 96 96 94 93 91 91 91 90 89 89 89 90 91 92 92 91 88 86 83 80 79 77 75 74 73 73 72 71 73 74 76 79 80 80 83 86 89 90 88 87 88 89 91 93 95 96 98 100 101 102 103 105 107 108 110
112 111 109 107 104 103 101 100 99 98 97 97 97 96 96 95 94 93 92 92 92 92 92 92 92 92 92 91 92 92 92 91 90 89 88 87 87 86 85 85 85 87 88 89 88 86 84 82 79 77 76 74 72 71 70 70 69 69 71 73 74 76 77 78 81 84 86 88 87 87 87 88 89 91 93 94 96 97 99 100 101 103 105 107 109
111 109 107 105 103 101 100 99 98 97 96 95 95 94 94 94 93 92 91 90 90 89 90 90 89 89 88 88 87 87 88 88 87 86 85 84 83 82 82 81 82 84 85 85 84 82 80 78 76 74 72 71 69 68 67 67 66 67 68 70 71 72 74 76 80 82 85 86 86 86 87 87 88 89 90 91 93 95 95 97 99 102 104 106 108
109 107 105 103 101 100 99 98 97 96 95 94 93 92 92 91 90 90 89 88 88 88 88 88 87 87 86 85 85 85 85 85 85 83 82 81 80 79 78 78 79 81 82 81 80 78 76 75 73 71 70 68 67 65 64 64 64 65 66 67 68 70 73 75 78 80 82 84 84 85 86 86 87 88 88 89 91 92 92 94 97 100 102 105 107
108 106 104 102 101 99 98 97 96 95 93 92 91 90 89 88 88 87 87 86 86 86 86 86 85 85 84 84 83 83 83 83 83 81 80 78 77 76 76 76 77 78 78 77 76 75 74 72 70 69 68 66 64 63 62 62 63 63 64 65 66 69 71 74 76 78 80 81 82 83 83 85 85 86 87 87 89 90 90 92 95 98 101 103 106
107 106 104 102 100 98 97 95 94 92 91 89 88 87 86 86 85 85 84 84 84 84 84 83 83 82 81 81 81 81 81 81 80 79 77 75 74 73 73 74 75 75 74 74 73 72 71 69 68 67 65 63 62 61 60 60 61 62 62 63 65 67 69 72 74 76 78 79 80 81 81 83 83 84 85 86 87 88 89 90 93 96 99 102 104
106 104 103 101 98 96 94 93 91 89 88 87 86 85 84 84 83 82 82 81 81 81 81 80 79 78 78 77 78 78 78 78 78 77 75 73 71 70 71 72 72 72 71 71 70 69 68 67 65 64 63 61 59 59 59 59 60 61 61 62 64 66 68 70 72 74 75 77 78 78 79 80 79 81 84 85 86 87 87 88 91 93 97 100 101
103 101 100 97 95 93 91 90 88 87 86 85 84 83 82 81 80 79 78 78 78 78 77 76 75 75 74 74 74 75 75 75 75 74 72 71 69 68 69 70 70 69 69 68 67 66 65 64 62 61 60 59 58 57 57 58 59 60 60 62 64 66 67 69 71 72 73 75 76 76 77 76 76 78 82 83 84 86 86 87 89 91 94 97 99
100 98 97 94 92 90 89 87 86 85 84 83 83 81 80 78 77 75 74 74 75 75 74 74 72 71 71 70 70 71 72 72 72 71 70 69 67 65 66 68 68 67 67 66 64 63 62 61 60 59 58 57 56 56 56 57 57 58 59 61 64 66 67 68 69 70 71 72 74 75 74 73 73 76 80 82 83 84 85 85 87 88 91 94 97
98 97 95 93 91 89 87 86 86 85 83 81 80 78 77 75 74 72 71 71 72 72 72 71 70 69 68 68 67 68 69 69 69 68 68 67 65 63 63 65 67 67 65 63 61 60 60 59 58 58 57 55 55 55 55 55 56 57 59 61 64 66 67 67 67 68 70 71 73 73 71 71 72 75 78 80 81 82 83 84 85 86 88 91 94
96 95 93 91 89 88 86 85 85 83 81 79 77 75 74 72 71 70 69 69 69 69 69 69 68 67 66 65 65 65 66 67 66 66 65 64 63 62 61 62 65 66 62 60 59 59 58 57 56 56 55 54 54 54 54 55 55 57 59 62 64 65 66 67 67 68 69 70 71 70 70 70 72 74 77 78 79 80 81 82 83 84 86 88 91
93 92 91 90 89 87 85 84 82 81 79 77 75 73 72 70 69 68 67 67 67 67 67 67 66 65 65 63 63 63 64 64 64 63 63 62 61 60 59 60 63 64 60 56 56 57 57 56 55 55 54 53 53 53 54 54 55 57 60 62 63 64 66 67 67 67 68 69 69 68 69 70 71 73 75 76 77 78 80 80 81 82 84 86 88
91 90 89 88 87 86 84 81 79 78 77 75 74 72 70 69 68 67 65 65 65 65 65 65 64 63 63 62 61 61 62 62 61 60 60 60 59 58 57 58 61 62 58 54 53 55 56 54 53 53 53 52 52 53 53 53 55 57 60 61 62 63 65 66 67 67 67 67 67 68 69 70 70 72 74 75 76 77 78 79 79 81 82 84 86
90 89 88 87 85 83 81 79 77 75 75 74 73 71 69 68 67 66 65 64 64 64 63 63 62 61 60 59 59 59 60 60 59 58 58 58 57 56 55 56 59 60 56 52 52 53 54 54 52 52 52 51 51 52 53 54 55 57 59 61 62 63 64 65 66 66 66 66 66 67 68 69 70 71 73 74 75 76 77 77 78 79 80 82 83
90 89 87 85 83 80 78 76 75 73 73 72 72 70 69 67 66 65 64 63 63 63 61 60 60 59 57 57 57 57 58 58 57 56 56 56 55 54 54 55 57 57 54 51 50 51 53 53 52 51 51 51 51 52 53 54 56 57 58 60 61 62 62 63 64 65 65 65 65 66 67 68 69 71 72 73 73 74 75 76 77 78 79 80 80
89 87 85 82 80 78 76 74 73 72 71 70 70 69 67 66 65 64 63 62 61 61 60 58 58 58 56 55 55 55 55 56 55 54 54 54 53 52 53 54 55 54 51 50 50 50 51 53 52 51 50 50 51 52 54 55 56 56 57 59 61 60 59 61 63 64 64 64 65 65 66 67 68 70 71 71 72 73 74 75 76 76 77 77 78
87 85 82 80 78 76 75 73 71 69 68 67 67 67 65 64 63 62 61 60 59 59 58 57 56 56 54 53 53 53 54 54 53 52 52 52 51 51 52 53 52 51 49 50 49 48 50 52 51 50 50 50 51 52 54 56 55 55 57 58 58 57 58 61 63 63 63 63 64 64 65 66 67 68 69 69 70 71 72 74 74 74 75 75 76
84 82 80 79 77 76 74 72 70 67 66 64 64 64 63 62 61 60 59 58 57 56 56 55 55 54 53 51 51 52 52 52 51 50 50 50 49 49 51 51 49 48 49 49 48 47 48 51 51 50 49 50 51 53 54 55 55 55 56 56 55 57 60 62 62 62 62 63 63 64 65 66 66 67 68 69 70 70 71 73 73 73 73 73 74
81 80 79 78 77 75 73 71 68 66 63 62 61 61 61 61 59 58 57 56 55 54 54 53 53 53 51 50 49 50 50 50 49 48 48 48 48 48 49 48 47 47 48 48 47 46 48 50 50 50 49 49 50 52 54 54 55 55 55 54 55 57 59 60 60 61 62 62 63 64 64 65 66 67 67 68 68 69 70 72 72 72 72 72 73
80 79 78 77 75 74 72 70 67 64 62 60 59 59 59 59 58 57 56 54 53 52 52 51 51 51 50 48 48 48 49 48 47 47 46 47 47 46 47 47 46 46 46 46 46 46 47 48 49 49 49 49 50 52 53 53 54 54 53 54 55 57 58 59 60 61 62 62 62 63 64 65 65 65 66 66 67 68 69 70 71 71 71 71 72
79 78 77 75 74 72 71 69 67 64 61 59 57 56 57 57 56 56 54 53 51 51 50 50 50 49 49 47 46 46 46 46 45 45 45 45 45 46 45 45 45 45 45 44 45 46 46 47 48 49 49 48 49 51 52 53 53 53 53 54 56 57 58 59 60 61 61 62 62 63 63 64 64 64 64 66 67 68 68 69 69 70 70 71 72
77 76 75 74 72 71 70 68 67 64 61 58 56 54 54 55 55 55 53 51 49 49 49 49 48 48 47 46 45 45 45 44 44 44 43 44 44 44 44 44 44 43 43 43 44 45 45 46 48 48 48 48 49 51 52 52 52 53 54 55 57 58 59 60 61 61 61 61 61 62 62 63 63 63 64 66 67 67 67 68 69 70 70 71 72
76 75 73 72 71 70 68 67 66 64 61 59 55 53 52 52 53 53 52 49 48 48 48 47 47 46 45 44 44 44 43 43 42 42 42 42 43 43 43 43 42 41 41 41 43 44 45 46 47 48 48 48 49 50 51 52 52 54 55 56 58 59 60 61 61 60 60 60 60 61 62 62 63 63 65 66 66 67 67 68 69 70 70 71 71
74 73 72 70 69 68 66 65 63 62 61 58 55 52 51 51 52 51 50 48 47 46 46 46 46 45 44 43 43 43 42 42 41 41 41 41 42 42 42 42 41 40 39 40 43 44 44 46 47 48 48 48 49 50 51 52 53 55 56 56 57 58 59 59 58 57 57 58 59 60 61 62 63 64 65 66 66 67 67 67 68 69 70 70 71
73 71 70 68 67 65 64 63 61 60 58 57 55 51 48 48 51 52 49 45 45 46 45 44 44 44 43 42 42 42 42 41 40 41 41 41 41 41 41 41 40 39 38 40 42 43 44 46 47 48 48 48 49 50 51 52 54 55 56 56 56 57 57 56 55 54 55 58 59 61 62 63 64 64 65 65 66 66 66 67 67 68 69 69 70
70 69 68 66 65 63 62 61 59 58 56 55 55 52 46 43 46 51 50 45 42 43 44 43 42 42 42 42 41 41 41 41 40 40 40 40 40 40 40 40 40 39 38 40 42 43 44 46 47 47 48 48 49 50 52 53 54 55 55 55 55 55 54 54 53 55 57 60 61 62 62 63 64 64 64 65 66 66 66 66 66 68 69 69 70
67 66 66 64 63 61 61 60 59 57 55 54 53 52 49 42 39 44 50 47 42 41 42 42 40 40 41 41 40 40 40 40 40 40 39 39 39 39 39 40 39 39 39 40 42 43 44 45 46 46 47 48 49 50 51 52 53 54 53 53 53 52 52 52 53 56 58 60 61 61 62 63 63 63 63 64 65 65 65 65 66 68 68 69 69
64 63 63 62 60 59 58 58 57 56 55 53 51 50 50 46 39 38 43 47 44 40 40 41 40 39 40 40 40 39 39 39 39 39 39 39 38 38 38 39 39 39 39 40 42 43 43 44 45 45 46 47 49 50 51 51 52 52 51 51 50 50 51 53 55 57 59 60 61 61 61 62 62 63 64 64 65 65 65 66 67 68 68 68 69
62 61 60 59 59 58 57 56 55 53 52 52 50 47 47 46 42 36 37 42 44 41 38 38 39 38 38 39 39 39 38 39 38 38 38 39 38 37 37 38 38 38 38 39 40 41 42 43 44 45 46 47 48 49 49 50 50 50 50 49 48 50 52 54 56 58 59 60 61 61 61 61 62 63 64 65 65 65 65 65 66 67 67 67 67
61 60 58 57 56 56 55 54 53 52 51 49 48 47 44 43 42 38 35 36 40 42 39 37 37 37 37 38 38 38 37 38 38 38 38 38 36 36 36 37 37 38 38 38 40 41 42 43 45 45 46 47 48 48 48 48 48 48 48 47 48 49 52 54 56 58 59 60 60 60 60 61 62 63 64 64 64 63 64 64 65 66 66 66 66
61 60 58 56 55 53 53 52 51 50 50 48 46 45 44 41 40 39 36 34 35 38 39 38 37 36 36 36 36 37 36 37 37 37 37 36 36 36 37 37 38 38 38 38 40 41 42 43 44 46 46 47 47 47 47 48 48 48 47 47 48 49 52 54 56 58 58 59 59 60 60 62 63 63 63 63 62 62 63 64 65 65 65 65 66
61 60 59 56 54 53 51 50 49 48 48 47 45 44 42 41 39 38 37 35 34 35 37 37 37 36 36 35 35 35 36 36 36 36 36 36 37 37 37 37 38 39 39 39 40 41 42 43 44 45 46 47 47 47 47 48 48 48 47 47 48 49 52 54 56 57 58 59 59 60 60 61 62 62 62 62 62 62 63 64 64 64 64 64 64
60 59 58 56 54 53 51 49 48 46 46 45 45 43 41 40 38 36 36 35 34 34 34 35 35 36 35 35 34 34 34 35 35 35 36 37 37 37 37 37 37 38 38 38 39 40 42 43 44 45 46 47 47 47 47 48 48 48 47 47 48 50 52 55 57 58 58 59 59 59 60 60 60 61 61 61 61 61 62 62 63 63 62 62 62
58 57 55 54 53 52 50 49 47 45 44 43 43 42 40 39 38 36 35 34 34 33 33 34 34 35 35 35 34 34 33 34 34 35 36 37 38 38 37 37 38 38 38 39 39 41 42 43 44 45 46 47 47 47 48 48 48 48 48 48 49 51 53 56 57 58 58 58 58 58 59 59 59 59 60 60 60 60 60 61 62 62 61 61 61
58 55 54 52 51 50 49 48 47 45 43 42 41 40 39 38 37 36 35 34 33 33 32 32 33 33 34 34 34 34 33 33 33 34 35 37 37 38 37 37 37 38 38 39 40 41 42 43 44 45 46 46 47 47 47 48 48 48 49 49 50 51 53 55 56 57 57 57 58 58 58 58 58 59 59 59 59 59 60 60 61 61 60 59 60
58 55 53 52 50 49 48 47 46 45 44 42 41 40 38 37 37 36 35 34 33 32 32 31 32 32 33 33 34 33 33 33 33 34 35 36 37 38 38 38 37 38 38 39 40 41 42 44 45 45 46 47 47 47 48 48 48 48 49 50 50 51 53 54 56 56 57 57 57 57 57 58 58 58 58 58 58 59 59 59 60 60 59 58 58
56 54 53 51 50 49 47 46 46 45 43 42 41 40 38 37 36 35 35 34 33 33 31 31 30 31 32 33 33 33 33 33 33 34 35 36 37 38 38 38 38 38 38 39 40 41 43 44 45 46 46 47 47 48 48 48 49 49 50 51 51 52 53 55 55 56 56 57 57 57 57 57 58 58 58 58 58 58 58 58 58 59 58 58 57
54 53 51 50 49 48 47 46 45 44 43 42 40 39 38 37 36 35 34 34 33 32 31 30 30 30 31 31 32 32 33 33 33 34 35 36 37 38 38 39 39 39 39 39 40 41 43 44 45 46 46 47 47 48 49 49 50 50 51 51 52 53 54 55 55 56 56 57 57 57 57 57 57 57 57 57 57 57 57 57 57 57 57 57 56
54 52 50 49 49 48 47 46 45 44 43 42 41 39 38 37 36 35 34 34 33 32 31 30 29 29 30 30 31 31 32 32 33 34 35 36 37 37 38 39 40 40 40 40 40 41 42 44 45 46 46 47 47 48 49 50 51 51 51 52 52 53 54 54 55 55 56 57 57 57 57 57 57 57 57 56 56 56 56 56 56 56 56 56 55
55 53 51 49 48 47 46 45 44 43 42 42 41 40 39 38 37 35 34 33 33 32 31 30 29 29 29 30 30 31 31 32 33 34 35 36 37 38 39 39 40 41 41 41 41 41 42 43 45 45 46 47 47 48 49 50 51 52 52 53 53 54 54 54 55 55 56 56 57 57 57 57 57 57 56 56 56 55 55 55 55 55 56 55 55
55 53 52 50 48 46 45 43 42 41 40 40 40 40 39 38 37 36 35 33 32 31 31 30 29 29 28 29 29 30 30 31 33 34 35 36 37 38 39 40 40 41 42 42 42 42 42 43 44 45 46 46 47 48 49 50 51 52 53 53 54 54 54 54 55 55 55 56 57 57 57 57 57 57 56 56 55 55 54 54 54 54 55 55 55
54 53 52 50 49 47 45 44 42 40 39 38 38 38 38 38 37 36 35 34 33 31 30 29 29 29 28 28 29 29 30 31 32 34 35 36 36 38 39 40 41 41 42 42 43 43 43 43 44 45 45 46 47 48 49 50 51 52 53 54 54 55 55 55 55 55 56 56 56 57 57 57 57 57 56 56 55 55 54 54 54 54 54 54 54
54 52 51 50 49 47 45 44 42 40 39 37 37 37 37 36 36 36 35 34 33 31 30 29 29 28 28 28 28 29 29 30 31 33 34 35 36 37 39 40 41 42 42 43 43 44 44 44 45 45 45 46 47 48 49 50 51 52 53 54 55 55 56 56 56 56 56 56 56 57 57 57 57 57 56 56 55 55 54 54 54 54 54 54 54
55 53 51 50 48 47 45 43 42 40 39 37 36 35 35 35 35 35 34 34 33 32 30 29 28 28 28 28 28 28 29 29 30 32 33 35 36 37 38 40 41 42 42 43 44 44 45 45 46 46 46 46 46 47 48 49 51 52 53 54 55 56 56 56 57 57 57 57 57 57 57 57 57 57 56 56 56 55 55 55 54 54 54 54 54
55 53 51 50 49 47 46 44 42 40 39 37 35 33 33 34 34 34 33 33 32 31 30 29 28 28 27 27 27 28 28 29 29 31 32 34 35 36 38 39 41 42 43 43 44 45 45 46 46 47 47 47 47 47 48 49 50 52 52 53 55 56 56 57 57 57 57 57 58 58 58 58 58 57 57 57 56 56 55 55 55 55 55 54 54
55 53 51 50 48 47 46 44 42 41 39 38 36 33 32 32 32 33 32 31 31 31 30 29 28 27 27 27 27 27 28 28 29 30 31 33 34 35 37 39 41 42 43 44 44 45 45 46 47 47 48 48 48 48 49 49 50 51 52 53 54 55 56 57 57 58 58 58 58 59 59 59 59 58 58 57 57 56 56 56 55 55 55 55 54
54 53 51 49 48 47 45 44 42 40 39 38 36 34 32 31 31 32 31 30 29 30 29 29 28 28 27 26 26 27 27 28 29 29 30 32 34 35 36 38 40 42 43 44 44 45 45 46 47 47 48 48 49 49 49 50 50 51 52 53 54 55 56 57 57 58 58 59 59 59 60 59 59 59 59 58 57 57 57 56 56 56 55 55 55
Wind_Direction
296 295 294 293 293 292 291 290 289 288 287 286 285 284 283 282 281 280 279 279 278 277 277 276 276 276 275 275 275 275 274 274 273 273 273 273 273 273 272 272 272 272 271 271 271 271 271 271 271 271 270 269 268 266 264 262 259 257 254 252 250 248 247 245 245 245 245 243 241 239 238 237 237 236 236 235 234 232 231 230 229 229 229 229 228
296 295 295 294 293 292 292 291 290 289 289 288 287 286 285 283 282 281 281 280 279 278 278 277 277 276 276 276 275 275 275 274 274 273 273 273 272 272 272 272 271 271 271 271 270 270 270 271 271 270 270 269 267 265 263 261 258 256 253 251 248 246 244 243 243 243 244 242 240 239 238 237 236 236 235 235 234 232 231 230 229 228 228 228 228
296 296 295 294 294 293 293 292 292 291 290 290 288 287 286 285 284 283 282 282 281 280 279 279 278 278 277 277 276 276 275 274 274 273 273 272 272 271 271 271 271 270 270 269 269 269 270 270 270 269 268 267 265 264 262 260 257 254 252 250 248 245 243 242 241 242 242 241 239 238 237 236 236 236 235 234 233 232 231 230 228 227 227 227 227
297 296 296 295 295 295 294 294 293 292 291 290 289 288 287 286 285 284 283 282 281 280 280 279 278 278 277 277 276 276 275 275 274 274 273 272 271 271 270 270 270 269 268 268 268 268 269 269 268 268 267 265 264 262 260 258 255 253 251 249 247 245 243 241 240 240 241 240 238 236 236 235 235 235 234 234 233 232 231 230 228 227 226 226 226
297 297 297 296 296 296 295 294 293 292 291 290 289 288 287 285 284 283 282 281 281 280 279 279 278 277 277 277 276 276 275 275 275 274 273 272 271 270 270 269 269 268 267 267 267 267 268 267 267 266 265 264 262 260 258 256 254 253 251 249 247 245 243 241 240 239 239 239 237 235 234 234 234 234 234 233 233 232 231 230 228 227 226 225 225
297 297 297 297 297 296 296 295 294 293 292 291 290 289 288 286 285 284 283 282 281 280 279 278 278 277 277 276 276 276 275 275 274 274 273 271 271 270 269 269 268 267 266 266 266 267 267 267 266 265 263 262 260 259 257 255 254 253 251 249 247 245 243 241 239 239 238 238 236 234 233 233 233 233 233 233 233 232 231 230 228 227 226 225 225
297 297 297 298 298 297 297 296 295 294 293 292 291 290 289 288 287 286 285 283 282 281 280 280 279 278 278 277 277 276 276 275 275 274 273 272 271 270 270 269 268 267 266 266 267 267 267 266 265 264 262 261 260 258 257 255 254 253 251 249 247 245 242 240 239 238 237 236 235 233 232 232 232 232 233 233 233 232 231 230 228 227 226 225 224
297 297 298 298 298 298 297 297 296 295 294 293 291 290 289 288 287 286 285 284 283 282 281 281 280 280 279 279 278 278 277 277 276 275 274 273 272 271 270 269 268 267 267 267 267 267 266 266 264 263 262 261 259 258 257 256 254 253 251 249 246 244 241 239 237 237 236 235 234 233 232 231 231 231 231 232 232 232 231 229 228 227 226 225 224
298 298 299 299 299 299 298 298 297 296 295 293 292 291 289 288 287 286 286 285 284 283 282 281 281 280 280 280 279 278 278 277 276 276 275 274 273 272 271 269 268 267 267 267 266 266 265 265 264 263 262 260 259 258 257 256 254 252 249 247 245 243 241 238 237 236 235 234 233 232 231 230 230 230 231 231 231 231 230 229 228 227 226 225 224
299 299 300 300 300 299 299 298 297 296 295 294 293 292 290 289 288 287 286 285 284 283 282 281 281 280 280 279 279 278 278 277 277 276 275 274 273 272 271 269 268 268 267 267 266 265 264 264 263 262 261 260 259 258 257 255 253 250 247 244 242 241 240 238 236 235 234 233 232 231 230 230 229 229 230 230 230 230 229 228 228 227 226 225 224
300 300 300 300 300 299 299 298 297 296 295 294 293 292 291 290 288 287 286 285 284 282 282 281 281 280 279 279 278 278 277 277 277 276 276 275 274 273 272 270 269 268 267 266 265 264 264 263 262 261 260 259 258 257 256 253 250 248 245 242 240 239 238 237 235 234 233 233 232 231 230 229 228 228 229 229 229 229 229 228 227 227 226 225 224
300 300 300 300 300 300 299 298 298 297 296 295 294 292 291 290 289 288 287 285 284 283 282 281 281 280 279 279 278 277 277 277 277 276 276 275 274 273 272 271 269 268 267 265 264 264 263 262 261 261 260 259 258 256 254 251 248 245 243 241 239 237 236 235 234 234 233 232 232 230 229 228 226 226 228 228 228 228 228 227 227 227 226 226 224
301 301 301 301 301 300 300 299 298 297 296 295 294 293 291 290 289 288 287 285 284 283 283 282 281 280 280 279 278 278 277 277 276 276 276 275 274 273 272 271 269 267 266 265 265 264 263 262 261 260 259 258 256 254 251 248 246 244 242 240 239 236 235 234 233 233 232 232 231 230 228 227 225 225 227 227 227 228 227 227 227 227 226 225 225
302 302 302 302 302 301 300 300 299 298 297 296 294 293 292 291 289 288 287 285 285 284 283 283 282 281 280 279 278 278 277 276 276 276 275 274 273 272 270 269 268 267 266 265 265 264 263 262 260 259 258 256 254 252 249 246 244 242 241 239 238 236 234 233 232 231 231 231 230 229 228 226 224 224 226 227 227 227 227 227 227 227 226 225 225
303 303 303 303 302 302 301 301 300 299 298 296 295 294 292 291 290 288 287 286 284 284 283 282 282 281 280 279 278 277 276 276 275 275 274 274 272 271 269 268 267 266 265 265 265 264 263 261 260 258 257 255 253 250 246 243 242 241 240 239 237 235 234 232 230 230 230 230 229 228 227 226 224 224 225 226 227 227 228 227 227 227 226 226 225
303 304 303 303 302 302 302 301 300 299 298 297 296 295 294 292 290 289 287 286 284 283 282 282 281 280 280 279 278 277 276 275 275 274 274 273 271 270 269 267 267 266 265 264 264 263 262 260 259 257 255 253 251 247 244 242 241 240 239 238 236 234 233 231 230 229 229 229 228 227 226 225 224 224 225 226 227 227 228 228 227 227 227 226 226
304 304 304 303 303 302 302 301 300 299 298 297 296 295 294 293 291 290 288 287 285 283 282 281 280 280 279 278 277 276 275 275 274 273 273 272 271 269 268 267 266 266 265 263 262 261 260 259 257 255 253 251 248 245 243 241 240 239 238 237 235 233 231 231 230 229 228 227 226 226 225 225 224 224 225 226 226 227 228 228 228 228 227 227 226
305 305 304 303 303 303 302 301 301 300 299 298 297 296 295 294 292 291 289 287 285 283 282 281 280 279 278 277 276 275 275 274 273 272 271 270 270 268 267 266 265 265 264 263 260 259 258 257 254 253 251 248 245 243 241 240 239 237 237 236 234 232 231 230 229 229 228 226 225 225 224 224 224 224 225 225 226 227 228 228 228 228 227 227 226
306 305 304 304 304 303 302 302 301 300 299 297 297 296 295 294 292 291 289 288 286 284 282 281 280 279 277 276 275 274 273 272 271 271 270 269 268 267 266 264 263 263 263 261 258 256 256 254 252 250 248 246 243 242 240 239 238 237 235 234 233 232 230 229 229 228 227 226 225 224 224 223 224 224 225 225 226 227 228 228 228 228 228 227 226
306 305 305 304 304 303 303 302 301 300 299 297 296 296 295 294 292 291 289 288 286 284 283 282 280 279 277 275 274 273 272 271 270 269 269 268 267 266 264 263 262 262 261 259 257 254 253 252 250 248 246 244 242 241 240 239 237 236 234 233 232 231 230 229 228 228 226 225 225 224 224 223 224 224 225 225 226 227 228 228 229 228 227 227 226
306 305 305 305 304 304 303 302 301 300 299 297 297 296 295 293 292 290 289 287 286 284 283 282 280 279 278 276 274 273 271 270 269 268 268 267 266 264 263 262 261 261 259 257 255 252 251 250 249 246 244 242 241 240 239 238 237 234 233 232 231 230 229 228 227 226 225 225 224 224 224 224 224 224 225 225 226 227 227 228 229 228 227 226 225
306 306 306 306 305 304 304 303 302 301 299 298 297 296 295 293 292 290 289 287 286 284 283 282 280 279 277 276 274 272 271 270 269 267 266 266 264 263 262 261 260 259 258 255 253 250 249 248 247 245 242 241 240 239 238 237 236 234 232 231 229 228 227 227 226 226 224 224 223 223 223 223 224 224 225 225 225 226 227 228 228 227 226 225 224
307 307 307 306 306 305 304 303 302 301 300 299 297 296 295 293 292 290 288 287 286 284 283 281 280 278 277 275 273 271 270 269 268 267 266 265 264 262 261 260 259 257 256 254 251 248 246 246 245 243 241 240 239 238 238 236 235 233 232 230 228 227 227 226 225 225 224 223 223 222 222 223 223 224 224 224 225 225 226 227 227 227 225 225 224
308 308 308 307 306 306 305 304 303 303 301 300 299 297 295 294 292 291 289 287 286 284 282 281 279 278 276 274 272 270 269 268 267 266 265 264 263 261 260 258 257 255 253 252 250 247 245 244 244 243 241 239 238 237 237 235 234 232 231 229 228 227 226 225 224 224 224 223 222 222 222 222 223 223 224 224 225 225 225 226 227 226 225 225 224
309 308 308 307 307 306 306 305 305 304 302 301 300 298 296 294 293 291 289 288 286 285 283 280 278 277 275 274 271 269 268 267 266 265 264 263 262 260 258 256 254 253 251 249 247 245 243 242 242 242 241 238 236 236 235 233 232 230 229 227 227 226 225 224 224 223 222 222 222 221 222 222 222 223 223 224 225 225 225 225 226 227 226 225 225
309 309 309 308 308 307 307 306 305 304 303 302 300 298 297 295 293 291 289 288 287 284 282 280 278 277 275 273 272 269 268 266 265 264 263 262 261 258 256 254 253 251 249 248 246 244 243 241 241 241 240 237 235 234 234 232 230 229 227 226 225 224 224 223 223 222 221 221 221 221 221 222 222 222 223 224 224 224 224 225 226 227 226 226 226
310 310 309 309 308 308 307 306 305 304 303 302 301 299 297 295 293 291 290 289 287 284 282 280 278 277 275 273 271 269 267 265 264 263 262 261 259 257 255 253 251 249 247 246 245 243 242 240 240 239 238 236 233 232 231 230 229 227 226 225 224 223 223 223 222 221 220 220 220 220 221 221 221 222 223 223 224 224 224 225 226 227 227 226 226
311 310 309 309 308 307 306 306 305 304 303 302 301 300 299 296 293 291 290 289 287 284 282 280 278 277 275 273 271 269 267 264 262 261 260 259 258 257 254 252 250 248 246 244 243 242 240 239 239 237 236 234 232 231 230 229 228 227 226 225 224 224 224 224 223 222 221 220 220 220 220 221 221 222 222 223 224 224 225 225 226 227 227 227 226
311 310 309 308 308 307 306 306 305 304 303 302 301 299 298 297 295 292 289 288 286 284 282 279 278 276 275 272 270 268 266 264 262 261 260 259 258 256 254 251 248 246 244 242 242 241 239 238 238 236 235 233 231 230 228 228 227 227 226 225 224 224 224 223 222 220 220 219 219 219 220 220 221 222 222 223 224 225 225 225 226 226 227 226 226
311 310 309 309 308 308 307 306 305 305 304 303 301 300 298 296 294 292 290 288 286 284 282 279 277 276 274 272 269 267 266 264 262 260 260 259 258 256 254 251 248 245 242 241 240 239 238 237 237 236 235 233 231 230 228 227 227 227 226 225 224 223 223 222 220 219 218 218 218 218 219 220 221 222 222 223 224 225 225 225 225 226 226 225 225
311 310 309 309 309 308 308 307 306 305 304 303 302 300 299 296 294 292 291 289 286 283 281 279 277 275 273 271 269 267 265 264 262 260 259 259 259 257 255 252 248 244 241 240 239 238 237 236 236 236 235 233 232 230 229 228 228 227 226 225 224 223 222 221 220 219 219 219 219 219 219 220 221 222 223 223 224 225 225 225 224 225 225 225 224
312 311 310 310 310 309 308 307 306 305 304 303 302 300 299 297 295 291 289 289 287 284 281 279 277 274 272 271 269 266 264 263 261 260 258 258 257 256 254 251 248 244 240 239 238 237 236 235 235 235 234 233 232 230 229 229 229 228 227 225 223 222 220 219 219 218 218 218 218 219 219 220 221 222 223 223 224 224 224 224 224 224 224 224 224
313 312 311 311 310 309 308 307 306 305 304 303 302 300 299 297 296 292 289 288 287 285 281 278 276 274 271 270 268 266 264 262 260 258 256 255 255 255 253 251 248 244 240 238 237 236 235 234 234 233 232 231 231 231 230 229 229 228 227 224 222 221 220 219 218 218 218 218 218 218 219 220 221 222 223 223 223 223 223 223 223 223 223 224 224
314 313 312 312 311 310 308 307 306 305 304 303 302 301 299 298 297 294 290 287 287 286 283 279 276 273 271 269 267 266 263 261 259 257 255 254 254 253 252 249 246 242 238 236 235 234 234 233 232 231 230 229 229 229 229 229 228 228 226 223 221 220 220 220 219 219 218 218 218 218 219 220 220 221 222 223 223 223 223 223 223 223 223 223 223
316 315 314 313 312 310 309 308 307 306 304 303 302 301 300 298 297 296 293 288 286 285 284 281 277 273 270 268 266 265 262 260 258 256 255 253 252 250 249 246 243 239 236 232 232 233 233 232 231 230 229 228 228 227 227 227 226 226 225 222 220 219 220 220 220 220 219 219 218 218 219 220 220 221 222 222 222 222 223 223 223 222 222 222 222
317 316 315 315 313 311 310 309 307 306 305 303 302 301 300 299 297 296 294 291 287 284 282 281 278 274 271 268 266 264 262 260 257 256 254 251 249 247 246 245 242 239 235 231 230 231 231 231 231 230 228 227 226 225 225 225 225 224 223 221 219 218 219 220 221 221 220 219 219 218 219 219 220 221 221 221 221 222 223 224 224 223 222 221 221
317 317 316 316 314 312 311 310 308 307 305 304 303 302 301 300 298 297 295 293 290 286 282 280 278 275 272 269 266 263 261 259 256 254 252 250 248 246 245 243 241 239 235 231 229 229 230 230 230 229 228 226 225 224 223 223 223 223 222 220 218 217 218 219 221 221 221 220 220 219 219 219 220 220 221 221 221 222 223 224 225 224 223 221 221
318 317 316 315 314 313 312 311 309 308 306 304 303 302 301 300 299 298 296 293 290 287 283 280 278 275 272 269 266 263 260 257 255 252 250 248 247 245 244 242 240 238 235 231 228 228 229 229 228 228 227 225 224 223 222 222 221 221 221 219 218 217 218 219 221 222 222 222 221 220 219 219 219 220 221 221 222 222 223 224 225 225 223 222 222
319 319 317 316 315 314 313 312 311 310 308 306 305 303 302 301 300 298 296 293 290 287 284 281 278 275 272 269 266 263 260 257 254 251 249 247 246 244 243 241 240 239 236 232 229 228 228 228 227 226 225 224 223 222 221 220 220 220 220 219 218 218 219 220 221 222 223 223 222 221 220 219 219 220 221 221 221 222 223 224 225 226 224 223 223
320 320 319 317 316 316 315 314 313 311 310 309 307 305 304 302 301 299 297 294 291 288 284 280 277 275 272 269 266 263 260 257 254 250 248 246 245 243 242 240 239 238 236 234 231 229 228 228 227 226 224 223 222 220 219 219 219 219 219 219 218 218 219 220 221 222 223 223 223 222 221 220 219 220 220 221 221 222 223 224 225 226 226 225 224
321 321 320 319 318 317 316 315 314 313 311 310 309 307 305 304 301 299 297 294 291 288 285 281 277 274 271 269 266 263 260 257 254 251 247 245 244 243 241 239 238 236 234 233 231 230 229 228 228 226 225 223 221 219 218 218 218 218 218 218 218 218 218 219 220 221 222 222 223 222 222 221 220 220 220 221 221 221 223 224 226 227 227 226 225
322 322 321 320 320 319 318 316 315 313 312 311 309 308 306 305 303 300 297 294 291 288 285 281 277 274 271 268 265 262 259 256 253 251 248 245 244 242 241 239 237 235 234 232 230 230 229 229 229 228 226 224 222 220 218 217 217 217 217 218 218 218 218 219 220 220 221 222 222 223 222 222 222 221 221 221 222 222 222 224 226 227 228 228 226
324 323 323 322 321 320 319 318 317 315 313 312 311 309 307 305 303 301 298 295 291 288 284 282 278 274 270 268 265 262 258 255 253 250 248 245 243 241 240 238 237 235 234 232 229 228 229 229 229 229 228 226 223 221 219 217 216 216 217 217 218 218 218 219 219 220 221 221 222 223 223 222 222 223 223 223 223 223 223 224 225 227 228 229 228
325 325 324 323 322 321 320 319 317 316 315 313 312 310 308 306 304 302 298 295 291 288 284 281 278 274 271 267 265 262 258 255 252 250 248 245 243 241 239 238 236 235 233 232 230 228 227 228 229 229 229 227 225 223 221 219 217 216 216 216 217 218 218 219 219 219 220 221 222 222 223 223 223 223 224 224 224 224 224 224 225 226 228 229 229
327 326 326 325 324 322 321 320 318 316 315 313 312 311 309 307 305 303 300 296 292 289 285 281 278 275 271 268 265 262 258 254 251 249 247 245 243 241 239 238 236 235 233 232 230 228 226 227 228 228 229 228 226 224 223 221 219 217 216 216 217 217 218 218 219 219 220 221 221 222 223 223 223 224 224 225 225 226 226 226 226 227 227 228 229
328 327 327 326 325 324 323 321 320 318 316 314 312 310 309 307 306 303 301 298 294 290 286 282 278 275 271 268 265 262 259 255 251 248 247 245 242 241 239 238 236 235 234 232 231 229 226 225 226 227 228 228 227 226 224 222 221 219 217 216 216 217 217 218 219 219 220 220 221 222 223 223 224 224 225 225 226 227 227 227 228 228 228 228 229
329 329 328 327 326 326 325 323 322 320 318 316 314 311 309 307 306 304 301 299 296 292 288 284 280 275 272 269 266 263 259 256 252 249 246 244 242 240 239 237 236 235 234 232 231 230 228 225 224 225 226 227 227 227 225 224 223 221 219 218 216 216 217 217 218 219 220 220 221 222 223 224 224 225 225 226 227 227 228 228 229 229 229 229 229
330 330 330 329 328 327 326 325 324 322 320 318 316 313 310 308 306 304 302 300 297 294 290 286 282 277 273 269 266 263 260 257 253 249 246 244 242 240 239 238 236 235 234 232 231 230 229 227 225 224 224 225 226 227 226 225 224 223 221 220 218 217 217 217 217 218 219 220 221 222 223 224 225 225 226 226 227 227 228 229 229 229 230 230 229
330 330 330 330 329 328 327 326 325 324 322 321 319 315 312 308 306 304 302 300 298 295 292 288 284 279 275 270 266 263 260 257 254 250 247 244 242 240 239 238 237 236 235 233 231 230 229 229 227 225 223 223 223 224 225 226 225 225 224 222 221 219 218 217 217 218 218 219 220 222 223 224 225 225 226 226 227 227 228 229 229 229 230 230 230
330 331 331 330 330 329 328 327 326 325 324 322 321 319 315 311 307 305 303 301 298 295 292 289 286 282 277 272 267 263 260 257 254 251 248 245 242 240 238 237 237 236 235 234 232 230 229 228 228 227 226 224 222 222 223 224 225 225 225 224 223 222 220 219 219 218 218 219 220 221 222 224 225 225 226 227 227 228 228 228 229 229 229 230 230
331 331 331 331 330 330 329 328 327 326 325 324 322 321 318 314 309 306 304 303 300 296 293 290 287 283 279 274 270 265 261 258 255 252 249 246 243 240 238 236 236 236 235 235 234 232 230 229 227 227 227 226 224 222 222 223 224 224 225 225 225 224 223 221 220 220 219 220 220 221 222 223 224 225 226 227 227 228 228 228 229 229 229 229 229